Location: Ferme V�ronneau
(45.1425°N, 71.8745°W)
Time: 13:05:58
(UTC-04:00)

Envisat - Visible Passes

Search period start: 15 August 2018 00:00
Search period end: 25 August 2018 00:00
Orbit: 764 x 766 km, 98.2° (Epoch: 15 August)

Date Brightness Start Highest point End Pass type
(mag) Time Alt. Az. Time Alt. Az. Time Alt. Az.
16 Aug 5.6 21:09:09 10° SW 21:12:36 18° W 21:16:05 10° NW visible
17 Aug 4.5 20:30:51 10° SSW 20:35:33 38° W 20:40:18 10° NNW visible
18 Aug 6.2 21:38:03 10° W 21:38:31 10° W 21:39:00 10° W visible
19 Aug 5.4 20:57:22 10° SW 21:01:19 23° W 21:05:18 10° NW visible
20 Aug 4.1 20:19:26 10° S 20:24:20 48° W 20:29:16 10° NNW visible
21 Aug 5.8 21:24:50 10° WSW 21:27:11 13° W 21:29:34 10° WNW visible
22 Aug 5.0 20:45:43 10° SSW 20:50:03 28° W 20:54:25 10° NW visible
23 Aug 3.7 20:08:07 10° S 20:13:07 60° W 20:18:10 10° NNW visible
24 Aug 5.7 21:12:41 10° SW 21:15:53 17° W 21:19:05 10° NW visible
